Erie, PA

11:26 AM EST on December 14, 2019 (GMT -0500)
Erie International

Weather History for KERI - October, 2019

Change the Weather History Date:

Saturday, October 26, 2019

  Actual Average Record
Temperature  
Mean Temperature 52 °F 50 °F  
Max Temperature 57 °F 58 °F 79 °F (1991)
Min Temperature 46 °F 42 °F 26 °F (1887)
Degree Days  
Heating Degree Days 14 15  
Month to date heating degree days 215 300  
Since 1 July heating degree days 227 424  
Cooling Degree Days 0 0  
Month to date cooling degree days 22 7  
Year to date cooling degree days 847 636  
Growing Degree Days 2 (Base 50)    
Moisture  
Dew Point 44 °F    
Average Humidity 75    
Maximum Humidity 83    
Minimum Humidity 60    
Precipitation  
Precipitation 0.37 in 0.12 in 1.12 in (1932)
Month to date precipitation 2.19 3.43  
Year to date precipitation 31.82 33.87  
Snow  
Snow 0.00 in 0.00 in - ()
Month to date snowfall 0.0 0.1  
Since 1 July snowfall 0.0 0.1  
Since 1 September snowfall 0.0 0.1  
Snow Depth 0.00 in    
Sea Level Pressure  
Sea Level Pressure 30.13 in    
Wind  
Wind Speed 7 mph ()    
Max Wind Speed 31 mph    
Max Gust Speed 40 mph    
Visibility 9.0 miles    
Events Rain    
T = Trace of Precipitation, MM = Missing Value Source: Averaged Metar Reports

Daily Weather History Graph

Daily Weather History Graph

Search for Another Location

Airport or City:

Astronomy

Oct. 26, 2019 Rise Set
Actual Time 7:45 AM EDT 6:22 PM EDT
Civil Twilight 7:17 AM EDT 6:51 PM EDT
Nautical Twilight 6:44 AM EDT 7:24 PM EDT
Astronomical Twilight 6:12 AM EDT 7:56 PM EDT
Moon 5:36 AM EDT (10/26) 6:00 PM EDT (10/26)
Length of Visible Light 11h 34m
Length of Day
10h 36m
Waning Crescent, 3% of the Moon is Illuminated
Oct 26
Waning Crescent
Oct 27
New
Nov 4
First Quarter
Nov 12
Full
Nov 19
Last Quarter

Hourly Weather History & Observations

Time (EDT) Temp. Dew Point Humidity Pressure Visibility Wind Dir Wind Speed Gust Speed Precip Events Conditions
12:20 AM 52.0 °F 44.1 °F 74% 30.22 in 10.0 mi NW 5.8 mph - N/A   Overcast
12:51 AM 52.0 °F 43.0 °F 71% 30.23 in 10.0 mi NW 6.9 mph - N/A   Overcast
1:36 AM 51.1 °F 43.0 °F 74% 30.21 in 10.0 mi NNW 3.5 mph - N/A   Overcast
1:48 AM 51.8 °F 42.8 °F 71% 30.22 in 10.0 mi NNW 3.5 mph - N/A   Overcast
1:51 AM 52.0 °F 43.0 °F 71% 30.23 in 10.0 mi NNW 4.6 mph - N/A   Overcast
2:51 AM 52.0 °F 42.1 °F 69% 30.23 in 10.0 mi NW 3.5 mph - N/A   Overcast
3:41 AM 50.0 °F 42.1 °F 74% 30.22 in 10.0 mi North 6.9 mph - N/A   Overcast
3:51 AM 48.9 °F 42.1 °F 77% 30.23 in 10.0 mi North 6.9 mph - N/A   Overcast
4:51 AM 48.0 °F 41.0 °F 77% 30.24 in 10.0 mi NE 6.9 mph - N/A   Overcast
5:51 AM 48.0 °F 39.9 °F 74% 30.26 in 10.0 mi NE 4.6 mph - N/A   Overcast
6:51 AM 48.0 °F 39.9 °F 74% 30.25 in 10.0 mi NE 6.9 mph - N/A   Overcast
7:51 AM 46.9 °F 39.9 °F 77% 30.25 in 10.0 mi ESE 5.8 mph - N/A   Overcast
8:51 AM 46.9 °F 41.0 °F 80% 30.25 in 10.0 mi East 5.8 mph - N/A   Mostly Cloudy
8:58 AM 46.9 °F 41.0 °F 80% 30.24 in 10.0 mi East 5.8 mph - N/A   Partly Cloudy
9:51 AM 48.0 °F 41.0 °F 77% 30.24 in 8.0 mi ESE 10.4 mph - N/A   Clear
10:51 AM 50.0 °F 41.0 °F 71% 30.22 in 7.0 mi Variable 6.9 mph - N/A   Clear
11:51 AM 54.0 °F 42.1 °F 64% 30.18 in 10.0 mi East 9.2 mph - N/A   Clear
12:51 PM 55.9 °F 42.1 °F 60% 30.16 in 10.0 mi East 6.9 mph - N/A   Clear
1:51 PM 55.9 °F 43.0 °F 62% 30.13 in 10.0 mi NE 5.8 mph - N/A   Clear
2:51 PM 55.0 °F 45.0 °F 69% 30.09 in 10.0 mi NNE 6.9 mph - N/A   Mostly Cloudy
3:51 PM 54.0 °F 46.9 °F 77% 30.07 in 7.0 mi ENE 5.8 mph - 0.00 in Rain Light Rain
4:51 PM 54.0 °F 48.9 °F 83% 30.04 in 5.0 mi NE 8.1 mph - 0.03 in Rain Light Rain
5:51 PM 55.0 °F 48.9 °F 80% 30.02 in 6.0 mi ESE 4.6 mph - 0.01 in Rain Light Rain
6:51 PM 54.0 °F 48.9 °F 83% 29.99 in 8.0 mi SE 11.5 mph 17.3 mph 0.09 in Rain Light Rain
7:51 PM 54.0 °F 48.9 °F 83% 29.96 in 10.0 mi SE 11.5 mph 18.4 mph 0.02 in Rain Light Rain
8:51 PM 55.0 °F 48.9 °F 80% 29.91 in 8.0 mi SSE 19.6 mph 32.2 mph 0.03 in Rain Light Rain
9:51 PM 54.0 °F 48.9 °F 83% 29.86 in 7.0 mi SSE 20.7 mph 34.5 mph 0.07 in Rain Light Rain
10:51 PM 55.0 °F 50.0 °F 83% 29.83 in 9.0 mi SSE 20.7 mph 33.4 mph 0.05 in Rain Light Rain
11:51 PM 55.9 °F 50.0 °F 80% 29.77 in 6.0 mi SE 23.0 mph 35.7 mph 0.01 in Rain Rain